Timeline UpdatesTrip UpdatesNews PostsPvt PostsTravel TipsAdmin PostsConv PostsFollowed PostsChat RequestsBlog PostsPNR Posts

Disclaimer
Search
 
 
Wed Oct 1, 2014 01:27:46 ISTHomeTrainsΣChainsAtlasPNRForumGalleryNewsFAQTripsMembersLoginFeedback
No Recent News for this Train
Other Trains in the News **new
Latest...
Will be short terminated at Angul & will run back as 58131 Rourkela - Puri Passenger from Angul-Puri on 11/6/14 #1126575.
Sat Jun 07, 2014 (12:58PM)
⇐ Return Journey: Train# 58131

58132/Puri Rourkela Passenger (UnReserved)

Time-Table HAS CHANGED.
Sep 03 (11:54PM)
Change Departure Station:
Change Arrival Station:
Post a Train Travel TipPost a Train Travel Tip **new
Post a Comment/Question/Picture/VideoPost a Comment/Question/Picture/Video
Pantry/Catering
✕ NO Pantry Car
✕ NO Catering
Loco/Rake Reversals
SBP/Sambalpur Junction (3);
RSA - Rake Sharing
Rake/Coach Composition
slr-gn-gn-gn-gn-gn-gn-gn-slr
Loco
News    PNR    Forum    Time-Table    Availability    Fare Chart    Map    Arr/Dep History    Trips    Gallery    ΣChains    X/O    Timeline    
Travel Time: 15h 56m    72 halts    Distance: 497 km    Avg Speed: 31 km/hr
Type: Passenger
Zone: SER/South Eastern
Departs @ 03:30 (Avg 3m late)
Platform# ???
SMTWTFS
Puri/PURI 
Arrives @ 19:26 (Avg 16m late)
Platform# ???
SMTWTFS
Raj Gangpur/GP 

72 halts. 80 intermediate Stations between Puri and Raj Gangpur

Show ALL intermediate Stations  Show Old Time-Table

#CodeStation NameX/OArrivesAvgDepartsAvgHaltPFDay#KmSpeedElevZoneAddress
1PURIPuri (5)»  -03:30+3--10.03712mECoRPuri, Odisha
2MLTMalatipatpur (1)X  03:41 03:42+403:47 03:43+46 1m117.33715mECoRPuri, Odisha
3JKDPJankidaipurX  03:52 03:48-03:53 03:49-1m--110.46013mECoRChandanpur, Odisha
4SILSakhi Gopal (3)X  03:59 03:55+404:00 03:56+51m--116.46710mECoRPuri, Odisha
5BRSTBir Purushottampur  04:05 04:01+704:06 04:02+81m--122.06712mECoRSatasankha, Odisha
6JERD new halt!!  04:06-04:07-1m--126.426 ???
7DEGDelang  04:17 04:13+904:18 04:14+91m--129.0449mECoRKhordha, Odisha
8KASRKanas Road  04:23 04:19-04:24 04:20-1m--132.7429mECoRKhordha, Odisha
9MWQMotari HaltX  04:29 04:25+904:30 04:26+91m--136.24612mECoRMotari, Odisha
10HPGMHaripur GramX  04:37 04:33-04:38 04:34-1m--141.51022mECoRKhordha, Odisha
11KURKhurda Road Junction (7)X  05:00 04:50-105:05 04:55+35m--144.24425mECoRKhordha, Odisha
12RTNRetangX  05:16 05:05+505:17 05:06+51m--151.66019mECoRKhurdha, Odisha
13LGTRLingaraj Temple RoadX  05:24 05:13-05:25 05:14-1m--158.66739mECoRBhubaneswar, Odisha
14BBSBhubaneswar (4)  05:30 05:18+805:35 05:20+95 2m--163.15240mECoRBhubaneshwar, Odisha
15BNBHBani Bihar (2)X  05:40 05:24-05:41 05:25-1m--166.63338mECoRBhubaneswar, Odisha
16MCSMancheswar  05:46 05:31+1305:47 05:32+151m--169.94527mECoRMancheswar, Odisha
17PTABPatia P.H.  05:51 05:36-05:52 05:37-1m--172.95930mECoRBhubaneshwar, Odisha
18BRAGBarangXO  06:00 05:43+1906:01 05:52+481 9m--178.8-27mECoRDist - Cuttack, Odisha
19GBKGopalpur BalkudaX  06:08 05:55+5206:09 06:00+531 5m--186.64228mECoRGopalpur, Odisha
20KTJIKatha Jori  06:14 06:04-06:15 06:05-1m--189.31828mECoRCuttack, Odisha
21CTCCuttack Junction (5)  06:20 06:10+4206:25 06:15+455m--190.84128mECoRCuttack, Odisha
22KNPRKendrapara Road  06:31 06:21+5906:32 06:22+591m--194.94029mECoRKendrapara Road, Odisha
23MACRManguli Chowdwar  06:38 06:28-06:39 06:29-1m--199.02525mECoROrissa, Odisha
24NRGNergundi  06:45 06:35+5506:46 06:36+561m--1101.43326mECoRCuttack District, Odisha
25SQQSalagaon  06:53 06:43+5806:54 06:44+581m--1105.34929mECoRCuttack, Odisha
26CBTCharbatia  06:58 06:50+1:0206:59 06:51+1:031m--1110.24735mECoRCuttack, Odisha
27BDPGBada Padagaon  07:04 06:56-07:05 06:57-1m--1114.14831mECoRCuttack, Odisha
28GJTAGurudijhatiaX  07:11 07:03+1:0307:12 07:04+1:041m--1118.95333mECoRGurudijhat, Odisha
29MZYMachapur  07:19 07:11+1:0507:20 07:12+1:061m--1125.02748mECoRKapilash Rd, Odisha
30RJGRRajathagarhX  07:27 07:19+1:0807:28 07:20+1:111m--1128.17358mECoRRaj Athgarh, Odisha
31JRZJoranda RoadX  07:38 07:30+1:1607:39 07:31+1:161m--1140.22562mECoRDhenkanal, Odisha
32SCPRShyama Charanpur HaltX  07:44 07:39-07:45 07:40-1m--1143.55894mECoRDhenkanal, Odisha
33DNKLDhenkanal (2)O  07:55 07:45+1:0808:00 07:50+1:065m--1148.37559mECoRDhenkanal, Odisha
34DNDLDandi MalO  08:06 07:56-08:07 07:57-1m--1155.83871mECoRIndipur, Odisha
35SSPRSadashibapur  08:11 08:03+1:1408:12 08:04+1:171m--1159.65454mECoROrissa, Odisha
36MHDBMahadia Ph  08:17 08:09-08:18 08:10-1m--1164.19566mECoRMahadia, Odisha
37HNDHindol Road  08:23 08:13+1:1808:24 08:14+1:181m--1168.85664mECoROrissa, Odisha
38NBTNayabagirthipurO  08:29 08:19-08:30 08:20-1m--1173.48859mECoRDhenkanal, Odisha
39MRDLMeramandolil  08:36 08:26+1:2208:37 08:27+1:231m--1182.26573mECoROrissa, Odisha
40BDPKBurhapanka  08:44 08:34+1:2808:45 08:35+1:291m--1189.95979mECoROrissa, Odisha
41TLHDTalcher RoadX  09:41 08:42-09:42 08:43-1m--1196.72173mECoRBhogabereni, Odisha
42TLHRTalcher  09:05 09:00+1:2609:30 09:25+1:3125m--1202.6886mECoRSub-division Angul district, Odisha
43ANGLAngul (2)  11:35+511:40+75m--1220.766120mECoRAngul District, Odisha
44KPJGKerejangaX  11:52+1811:54+212m--1234.068164mECoRNational Highway 42, Odisha
45JRPDJarapadaX  12:03+2212:05+272m--1244.162205mECoRNational Highway 42, Odisha
46BONABoindaX  12:23 12:20+2412:25 12:22+332m--1259.752292mECoRState Highway 62, Odisha
47HNPAHandapa  12:35 12:30+3112:37 12:32+372m--1266.677257mECoRNational Highway 42, Odisha
48SRGPSaragipaliX  12:48 12:43+3812:50 12:45+422m--1280.658197mECoROrissa, Odisha
49BAMRBamur  12:58 12:55+3913:00 12:57+472m--1290.353181mECoRBamur, Odisha
50RAIRRairakholX  13:15+4713:17+542m--1306.269144mECoRSH 24, Odisha
51CHARCharmal  13:33 13:30+4513:35 13:32+512m--1321.165160mECoROrissa, Odisha
52JUJAJujumura  13:48+5413:50+582m--1338.470217mECoRSambalpur, Odisha
53HATBHatibari  14:00+5814:02+582m--1350.146189mECoROrissa, Odisha
54MANEManeswar  14:18+5114:20+532m--1362.453160mECoROrissa, Odisha
55SBPYSambalpur City  14:30+5314:32+552m--1371.324161mECoRSambalpur, Odisha
56SBPDSambalpur Road new halt!!X  14:43-14:45-2m11375.82161mECoRSambalpur, Odisha
57SBPSambalpur Junction (3)15:50 15:40+1016:10 16:00+1320m11377.347159mECoRSambalpur, Odisha
58SLRASarla Junction new halt!!  16:10+916:12+112m--1385.038160mECoRPardhiapali, Odisha
59SSNSasonX  16:30 16:20+1116:32 16:22+112m--1390.171171mECoRState Highway 10, Odisha
60RGLRengali  16:40 16:30+1216:42 16:32+152m--1399.659208mECoRState Highway 10, Odisha
61LPGLapanga  16:50 16:43+2416:52 16:45+292m--1410.467215mECoRJharsuguda, Odisha
62BXQBrundamal  17:00 16:53+3017:02 16:55+302m--1419.310209mECoRJharsuguda, Odisha
63JSGRJharsuguda Road new halt!!  17:21+817:23+142m--1423.75225mECoRJharsuguda, Odisha
64JSGJharsuguda Junction (5)  17:50+618:00+1110m--1426.057236mSERJharsuguda, Odisha
65DTVDhutra  18:09+1718:10+181m--1434.647240mSERJharsuguda, Odisha
66PNPLPanpali  18:17-18:18-1m--1440.056258mSERJharsuguda, Odisha
67BEHBagdihi (3)  18:25+1618:26+171m--1446.654257mSERState Highway 24 PH: 06640-286227, Odisha
68DIHDharuadihiX  18:33+1818:34+191m--1452.964258mSERSH 24, Odisha
69BMBBamra (3)  18:43+2018:44+241m--1462.556259mSERBamra PH : 06642-229268, Odisha
70TGMTangarmundaX  18:53+1918:54+201m--1470.958264mSERSundargarh, Odisha
71GPHGarpos (3)  19:02+2019:03+211m--1478.747281mSERSundargarh, Odisha
72SOGRSogra  19:09+1719:10+181m--1483.455293mSERState Highway 10, Odisha
73SXNSonakhan  19:17+1619:18+171m--1489.855249mSERSundargarh, Odisha
74GPRaj Gangpur (3)•X  19:26+1619:27+171m--1497.155237mSERRaj Ganpur, Odisha
75KXNKanshbahalX  19:37+1019:38+121m--1506.347217mSERSundargarh, Odisha
76KLGKalunga  19:47+1719:48+181m--1513.450203mSERSundargarh, Odisha
77PPOPanposh (2)  19:57+219:58+31m--1520.913190mSERRourkela, Odisha
78ROURourkela Junction (5)  20:25+4-21526.9-198mSERRourkela, Odisha
Scroll to Top
Scroll to Bottom